Wetbulb
57.97 55.54 54.94 52.56 40.96 39.19 35.71 38.86 41.69 41.83 41.10 44.87 46.62 44.48 40.23 41.00 38.81 39.41 41.85 42.24 42.93 42.28 43.12 45.73 55.21 56.80 58.93 60.98 62.70 63.44 65.42 66.96 68.32 70.02 70.95 71.98 70.42 69.95 71.33 71.58 71.82 71.86 72.34 72.57 71.40 72.08 72.76 72.77 72.12
53.96 54.21 53.36 48.87 36.81 33.44 34.49 41.50 41.05 40.39 44.04 45.06 44.09 45.28 41.33 36.24 41.76 41.79 40.99 42.14 43.44 42.80 43.41 45.89 53.35 55.02 56.39 58.33 59.91 61.45 63.10 64.54 65.96 67.94 69.10 70.53 71.69 70.98 70.69 71.86 72.16 72.69 72.44 72.55 71.68 71.33 72.03 72.53 72.57
51.84 54.76 47.35 41.99 36.95 33.53 36.45 41.08 38.92 40.46 44.34 45.30 41.92 43.32 40.75 37.02 38.80 39.36 40.62 41.71 43.06 42.37 43.21 45.79 51.85 53.51 54.44 55.81 57.09 58.69 60.28 61.88 63.60 65.02 66.98 67.72 69.25 70.56 71.85 71.94 72.67 72.91 72.40 72.79 72.31 71.67 71.54 72.19 71.97
51.35 49.79 47.14 37.75 35.95 38.48 37.63 40.44 40.48 39.68 42.96 44.76 42.81 34.94 38.31 40.83 37.73 39.39 41.00 40.74 41.22 41.51 42.90 45.12 50.38 51.70 52.61 53.91 55.08 56.15 57.47 59.07 60.38 62.30 63.97 65.81 67.41 68.72 69.92 71.56 72.07 71.86 71.94 72.18 71.69 72.43 72.01 71.88 71.60
52.31 48.10 37.50 35.36 36.63 37.24 39.58 42.31 41.01 39.06 40.21 42.10 44.17 37.25 34.12 38.52 40.74 40.36 40.63 40.98 39.57 40.79 41.49 43.04 48.74 50.07 51.00 51.95 53.30 54.04 55.42 56.13 57.69 59.03 60.63 62.43 64.61 66.73 67.52 70.09 71.82 71.65 71.53 72.25 71.65 71.45 71.35 71.66 71.51
44.56 44.92 35.40 33.82 37.43 38.74 38.67 40.36 40.75 41.28 39.96 38.28 40.74 37.74 35.02 39.43 39.02 39.39 40.17 38.89 40.59 40.27 41.29 42.28 44.84 47.44 48.74 49.67 51.28 52.13 52.90 53.78 54.92 55.95 57.27 58.57 61.01 63.09 66.33 67.37 69.39 71.42 71.78 71.89 71.55 71.37 71.25 71.19 71.39
42.49 39.06 34.89 36.35 38.05 35.96 37.66 40.06 36.03 39.35 38.67 38.09 42.76 37.04 35.20 37.14 38.47 39.70 39.25 39.29 39.48 40.17 40.00 39.80 40.77 42.51 45.34 46.86 48.96 50.04 50.93 51.64 52.39 53.12 54.09 54.63 55.35 58.89 63.12 65.26 66.28 67.45 70.21 71.58 71.27 71.33 71.10 71.52 71.06
43.27 41.75 37.05 36.25 36.55 35.54 36.88 38.20 39.25 39.26 34.82 38.38 38.99 34.90 31.82 35.52 38.93 39.76 39.38 38.51 38.14 38.85 38.64 37.99 38.22 39.58 39.82 41.31 46.48 47.68 48.37 49.26 49.99 50.37 50.72 50.61 51.37 53.38 57.66 60.41 63.09 65.38 67.65 70.65 70.91 71.19 71.17 70.83 70.27
44.70 36.15 33.95 36.97 37.76 36.00 37.23 34.26 36.97 36.04 35.73 36.79 37.00 36.06 36.47 38.26 39.52 38.47 37.77 36.94 36.75 38.26 36.94 36.81 36.64 37.32 37.94 39.36 41.55 44.00 45.58 46.54 46.92 46.97 47.71 46.62 47.03 49.20 51.89 56.94 59.71 63.36 66.10 69.07 70.74 70.81 70.29 69.17 68.07
38.02 32.95 35.02 35.28 35.00 34.99 36.84 35.85 34.45 34.03 34.49 34.00 33.50 35.86 37.27 37.77 37.17 35.97 34.70 33.22 33.60 33.99 35.23 35.38 35.17 35.88 36.58 38.63 37.84 38.72 40.40 40.88 41.36 42.48 42.37 43.90 44.91 48.00 49.74 52.13 57.76 60.98 62.37 67.66 69.71 70.23 69.04 67.29 66.96
36.87 33.29 35.74 34.70 36.37 38.37 36.49 35.93 36.29 33.62 31.32 34.44 32.28 33.29 35.51 36.09 35.68 35.19 34.13 33.17 32.44 33.64 34.60 35.33 34.70 34.83 34.44 34.88 36.12 36.09 37.49 38.01 39.66 40.19 41.46 42.45 43.85 45.47 46.98 49.13 52.44 56.65 59.73 63.74 68.33 67.95 67.27 65.83 66.16
31.43 34.18 34.68 35.04 34.54 35.77 33.95 35.99 32.66 33.80 31.56 37.77 37.10 36.19 35.21 34.74 34.58 34.26 33.34 33.12 32.55 33.01 33.82 34.47 34.31 34.08 33.48 34.10 34.23 34.99 35.65 36.81 37.21 38.54 40.53 40.91 41.38 42.22 43.76 45.45 47.99 51.00 55.38 57.82 64.54 67.35 67.03 65.89 64.91
30.41 31.46 33.57 32.59 32.78 32.80 33.99 32.47 31.14 32.47 34.70 35.88 37.08 36.30 34.43 34.17 34.16 33.67 34.08 34.18 33.24 32.13 33.03 33.03 33.27 32.73 33.61 33.26 33.24 33.64 34.13 35.21 36.03 37.00 39.21 40.07 39.65 40.63 42.16 43.53 45.18 47.68 50.61 54.47 57.70 66.34 66.25 65.79 65.80
33.01 32.30 30.63 31.07 31.29 31.05 30.05 30.96 29.63 31.95 34.14 34.24 34.33 33.29 33.86 34.31 34.13 33.09 33.26 32.72 32.69 33.40 32.30 32.91 33.23 32.89 33.16 31.89 32.13 32.33 33.57 34.47 35.45 36.27 37.60 39.00 39.11 40.12 41.20 41.96 43.45 45.08 47.94 49.41 52.83 55.98 65.63 65.78 66.11
32.26 27.26 28.00 28.78 29.29 28.72 29.47 26.82 26.09 32.79 33.75 32.39 32.56 33.51 33.44 34.03 34.46 33.20 32.94 32.24 32.12 32.50 32.70 32.33 32.82 33.15 31.72 31.58 31.66 31.88 33.00 34.83 34.49 35.72 37.17 38.09 39.00 38.89 40.28 41.32 42.86 44.94 47.60 49.42 51.79 55.22 62.46 65.69 66.12
28.18 26.95 20.80 27.86 28.50 27.39 25.74 23.28 28.57 31.73 31.39 30.67 31.41 32.29 32.24 33.25 33.92 33.60 33.21 32.66 32.46 31.75 31.61 32.37 33.88 32.46 31.39 30.75 30.81 31.61 32.53 32.81 34.03 35.21 36.13 38.20 39.35 39.15 39.26 40.61 40.72 43.12 43.74 45.98 47.77 50.75 54.72 64.84 64.91
25.50 19.72 24.30 23.39 29.23 27.06 24.46 21.73 27.71 30.26 29.81 29.29 29.74 29.98 30.84 31.72 33.11 33.16 32.62 31.75 31.91 31.15 31.00 30.26 31.00 30.49 30.79 30.44 30.69 30.81 31.96 32.50 33.46 34.41 35.23 36.45 37.98 38.62 37.79 38.45 40.23 41.55 42.54 44.13 45.58 46.23 50.72 56.16 64.05
21.12 20.01 24.09 22.78 23.96 23.71 23.38 20.95 27.47 28.90 28.59 27.57 27.73 28.32 29.05 30.64 31.45 33.60 31.95 32.23 31.23 30.67 30.04 29.76 30.14 29.76 29.66 29.24 29.39 29.59 30.41 31.44 32.49 32.82 34.16 35.96 36.08 36.82 36.56 37.18 37.82 40.24 40.73 41.40 43.80 44.19 45.56 50.30 60.00
21.72 20.23 22.03 22.33 23.63 21.21 22.55 23.39 26.86 28.08 27.12 25.43 25.93 26.81 27.61 29.27 32.22 32.29 31.73 30.77 30.30 29.74 28.93 28.72 28.28 28.17 27.64 26.59 25.55 25.97 25.59 28.37 30.12 32.32 34.14 34.38 35.04 35.82 35.68 36.03 36.83 38.21 39.20 40.02 42.53 43.23 43.27 44.40 52.37
22.99 20.26 21.22 20.91 23.67 18.77 21.41 19.87 25.67 28.21 25.78 26.11 24.97 26.19 27.69 29.28 29.52 30.40 28.90 28.81 29.46 29.15 27.46 27.83 27.66 27.22 27.03 26.58 25.92 26.33 26.22 27.64 29.62 31.71 33.12 34.85 35.62 36.57 36.43 36.15 36.26 37.95 38.95 40.55 42.03 44.24 44.34 44.88 47.79
22.93 20.75 20.08 18.41 22.27 24.55 19.44 18.18 22.45 27.62 27.51 26.82 27.02 27.69 29.55 28.45 28.24 28.93 27.50 28.16 28.97 27.88 26.14 26.71 27.13 26.98 26.46 26.52 26.54 26.39 26.92 27.25 28.00 29.89 31.33 32.86 34.15 34.56 34.97 34.73 34.80 35.03 36.22 36.60 38.40 40.94 41.57 41.48 44.74
20.51 21.94 21.44 20.63 20.14 18.96 21.09 15.28 21.47 21.84 19.71 22.40 26.38 28.98 27.78 27.83 29.07 29.31 28.58 24.65 26.72 25.87 26.87 26.67 26.38 26.78 26.34 25.64 24.56 22.80 23.19 23.19 25.75 27.86 29.84 30.90 32.31 32.90 33.74 34.13 33.91 34.12 35.11 35.46 37.01 40.11 41.08 41.83 39.70
18.76 22.19 20.95 19.98 18.43 15.57 17.62 14.47 19.86 22.20 21.02 21.31 23.33 26.89 28.60 28.95 28.99 28.94 29.02 28.16 26.92 23.50 21.10 22.54 23.63 24.53 25.31 24.65 23.93 22.68 22.06 23.71 25.35 26.90 27.49 28.64 30.23 31.78 32.87 33.53 33.65 33.65 34.48 35.09 36.11 37.38 39.05 41.05 40.97
22.63 19.97 20.29 19.73 19.23 8.52 16.85 18.07 18.29 17.67 22.63 22.70 23.98 26.19 28.56 27.38 27.60 27.77 27.75 27.75 22.92 21.75 18.87 20.57 17.79 22.31 20.53 21.07 22.01 22.21 21.15 21.68 22.53 24.30 25.15 26.71 28.46 29.77 31.24 32.58 32.65 33.30 33.89 34.42 35.66 37.41 38.29 40.00 41.17
19.84 17.84 15.65 11.36 6.50 10.36 14.30 13.50 15.37 20.44 25.29 24.30 25.56 25.85 25.96 25.06 24.13 24.04 25.12 24.08 23.99 20.92 18.01 16.37 16.89 15.06 15.89 15.10 20.43 20.29 22.06 21.74 21.99 23.57 24.92 25.40 26.32 27.50 28.59 30.07 30.80 31.54 32.74 33.75 34.87 35.62 37.79 40.08 40.46
19.56 18.01 15.27 9.58 12.09 10.55 14.05 5.23 17.82 21.05 23.30 26.41 26.25 24.59 24.89 22.12 21.41 22.06 22.84 22.08 21.06 20.23 18.23 14.76 12.80 11.54 13.43 11.87 14.15 20.67 22.32 22.23 22.94 24.34 25.36 25.86 26.62 27.30 28.73 29.08 29.77 30.81 31.62 32.04 33.35 34.62 37.61 40.13 41.09
13.85 12.46 16.61 14.98 11.16 6.12 12.41 15.45 18.88 21.13 21.42 21.48 21.25 22.80 21.53 22.28 20.17 20.22 21.26 20.92 19.98 17.77 15.33 13.61 10.87 8.99 8.89 11.04 12.04 16.54 20.62 21.70 22.14 23.39 25.31 26.86 27.54 28.27 28.30 28.80 28.86 29.57 30.32 30.80 31.89 32.57 33.72 37.53 39.28
13.51 14.14 11.85 14.50 10.65 6.18 9.93 13.97 20.15 18.85 19.62 21.12 20.63 20.73 20.46 20.93 18.90 19.34 20.44 20.04 18.88 16.25 14.36 13.60 10.63 8.64 8.22 8.59 10.54 17.02 16.53 20.98 22.06 23.17 24.63 25.45 26.64 27.22 27.34 27.89 28.44 28.97 29.86 30.93 31.34 31.65 32.97 34.52 37.01
9.76 8.52 11.27 12.70 13.01 10.65 4.18 12.54 22.48 23.44 23.35 22.66 22.61 23.37 21.68 17.28 18.47 18.55 18.61 18.20 17.11 16.10 12.55 11.76 11.65 9.22 7.73 6.43 8.45 11.00 16.22 18.86 21.09 23.35 24.73 25.64 26.56 27.27 27.63 27.99 28.43 29.13 29.77 30.78 31.46 31.82 32.52 35.13 36.79
6.40 13.20 13.83 13.67 8.81 5.90 1.35 8.84 20.17 22.42 23.62 25.26 23.17 25.20 18.34 19.40 21.30 19.52 16.17 17.10 16.78 15.45 14.81 11.70 11.14 9.12 8.18 7.99 7.08 10.60 14.24 17.01 19.82 22.22 23.31 24.66 25.42 26.99 27.54 28.34 28.50 28.79 29.11 30.00 30.43 31.73 32.37 32.92 34.47
MSLP
1009.62 1008.54 1008.33 1008.33 1009.03 1008.41 1007.58 1006.90 1006.72 1007.50 1008.55 1009.63 1009.37 1009.85 1011.80 1013.60 1015.26 1017.55 1019.29 1019.68 1019.77 1020.11 1020.20 1020.02 1019.24 1018.62 1018.17 1017.73 1017.11 1016.77 1016.27 1016.01 1015.68 1015.29 1015.02 1014.77 1014.78 1014.87 1014.81 1014.93 1014.96 1015.11 1015.19 1015.28 1015.35 1015.42 1015.64 1015.72 1015.96
1009.56 1008.65 1008.41 1008.11 1008.43 1007.91 1007.00 1006.78 1007.56 1008.50 1009.58 1010.48 1010.78 1011.57 1013.03 1015.91 1016.78 1018.01 1018.87 1019.59 1019.57 1019.84 1020.16 1019.92 1019.58 1019.21 1018.64 1018.39 1017.84 1017.42 1016.93 1016.71 1016.31 1015.97 1015.64 1015.36 1015.13 1015.14 1014.99 1014.98 1015.15 1015.19 1015.38 1015.54 1015.60 1015.66 1015.87 1016.06 1016.20
1009.66 1008.64 1008.50 1008.05 1007.62 1007.15 1006.55 1006.14 1007.97 1009.62 1010.08 1010.74 1012.08 1013.28 1015.05 1017.01 1018.06 1018.70 1019.54 1019.82 1019.55 1019.91 1020.08 1020.07 1019.68 1019.42 1019.13 1018.75 1018.35 1017.98 1017.53 1017.19 1016.96 1016.47 1016.28 1016.06 1015.76 1015.54 1015.25 1015.18 1015.26 1015.32 1015.51 1015.73 1015.81 1016.01 1016.10 1016.34 1016.44
1008.95 1008.67 1008.20 1007.51 1007.01 1006.53 1006.60 1007.75 1008.49 1009.74 1010.69 1011.23 1012.62 1015.03 1016.91 1017.89 1018.38 1019.28 1019.75 1019.98 1019.79 1020.01 1020.13 1020.25 1019.94 1019.80 1019.37 1018.95 1018.71 1018.46 1018.03 1017.74 1017.27 1017.15 1016.73 1016.51 1016.23 1015.80 1015.88 1015.49 1015.35 1015.62 1015.65 1015.72 1015.94 1016.20 1016.42 1016.50 1016.69
1008.72 1008.04 1008.15 1007.45 1006.90 1006.72 1007.10 1007.67 1008.60 1009.87 1010.99 1011.82 1012.58 1015.08 1017.49 1018.52 1018.85 1019.24 1019.68 1019.78 1020.04 1020.15 1020.54 1020.45 1020.28 1020.08 1019.52 1019.13 1019.17 1018.75 1018.53 1018.23 1017.73 1017.53 1017.36 1017.01 1016.61 1016.26 1016.18 1015.80 1015.63 1015.70 1015.87 1015.83 1015.99 1016.27 1016.59 1016.73 1016.78
1008.67 1007.89 1007.62 1007.45 1006.80 1006.93 1007.87 1008.41 1008.95 1009.99 1011.24 1012.40 1013.34 1015.34 1017.65 1018.60 1018.95 1019.35 1019.56 1019.84 1020.07 1020.47 1020.47 1020.76 1020.62 1020.28 1019.95 1019.59 1019.32 1019.14 1018.88 1018.65 1018.05 1017.81 1017.78 1017.48 1017.12 1016.71 1016.16 1016.29 1016.01 1015.90 1015.81 1016.09 1016.06 1016.24 1016.64 1016.84 1016.85
1008.39 1007.99 1007.42 1006.90 1006.81 1007.56 1008.23 1009.03 1009.68 1010.56 1011.99 1012.90 1013.10 1015.37 1017.98 1018.69 1019.22 1019.45 1019.29 1019.74 1020.22 1020.51 1020.89 1020.88 1020.71 1020.62 1020.43 1019.97 1019.76 1019.45 1019.10 1018.89 1018.65 1018.28 1017.93 1017.93 1017.65 1017.22 1016.36 1016.26 1016.40 1016.46 1016.16 1016.13 1016.28 1016.37 1016.60 1016.97 1017.02
1008.81 1007.98 1007.28 1007.27 1007.52 1007.90 1008.75 1009.46 1010.06 1011.01 1012.93 1013.72 1014.22 1015.56 1017.66 1018.55 1019.20 1019.39 1019.55 1019.97 1020.29 1020.68 1020.78 1020.97 1020.74 1020.67 1020.76 1020.40 1020.12 1019.79 1019.33 1019.36 1019.04 1018.70 1018.42 1018.25 1017.94 1017.61 1016.90 1016.63 1016.58 1016.60 1016.47 1016.20 1016.45 1016.48 1016.60 1016.97 1017.28
1008.98 1008.62 1008.08 1008.15 1008.33 1008.54 1009.38 1010.48 1011.20 1012.54 1013.41 1014.29 1015.28 1016.20 1017.56 1018.49 1018.98 1019.31 1019.77 1020.26 1020.45 1020.74 1021.04 1021.22 1021.08 1020.92 1020.90 1020.36 1020.47 1020.24 1019.92 1019.83 1019.54 1019.22 1018.87 1018.68 1018.40 1018.04 1017.85 1017.45 1016.83 1016.60 1016.56 1016.34 1016.17 1016.65 1016.45 1017.02 1017.38
1009.40 1009.02 1008.63 1009.04 1009.23 1009.48 1010.29 1011.10 1012.17 1013.25 1014.15 1015.41 1016.42 1017.29 1017.87 1018.42 1018.92 1019.34 1019.77 1020.51 1020.88 1021.21 1021.46 1021.65 1021.56 1021.24 1021.12 1020.87 1020.82 1020.65 1020.55 1020.36 1020.08 1019.81 1019.70 1019.27 1018.88 1018.77 1018.21 1018.08 1017.37 1016.74 1016.69 1016.30 1015.96 1016.28 1016.34 1016.81 1017.37
1009.36 1009.53 1009.72 1010.52 1010.74 1010.53 1011.10 1011.67 1012.36 1013.25 1014.51 1014.68 1015.91 1017.10 1017.89 1018.45 1019.01 1019.59 1020.16 1020.59 1021.08 1021.46 1021.74 1021.90 1021.80 1021.60 1021.59 1021.49 1021.23 1021.15 1020.87 1020.73 1020.43 1020.36 1020.28 1019.83 1019.56 1019.03 1018.74 1018.49 1018.15 1017.51 1016.60 1016.75 1015.94 1015.84 1016.14 1016.44 1016.93
1010.57 1010.59 1011.03 1011.82 1012.23 1011.92 1012.24 1012.46 1013.13 1013.67 1014.54 1013.84 1015.44 1016.89 1017.72 1018.40 1019.13 1019.68 1020.26 1020.77 1021.18 1021.57 1021.78 1021.96 1021.87 1021.75 1021.83 1021.62 1021.41 1021.19 1021.06 1020.93 1020.80 1020.73 1020.55 1020.18 1019.97 1019.56 1019.12 1018.99 1018.69 1018.34 1017.69 1017.36 1016.63 1015.72 1015.19 1015.88 1016.36
1011.23 1011.59 1012.27 1013.06 1013.29 1013.23 1013.32 1013.34 1014.00 1014.18 1014.72 1015.07 1015.77 1016.80 1017.65 1018.40 1019.03 1019.66 1020.12 1020.72 1021.09 1021.43 1021.67 1021.89 1021.96 1022.02 1021.89 1021.78 1021.88 1021.76 1021.51 1021.25 1021.24 1021.14 1020.90 1020.65 1020.35 1020.14 1019.60 1019.62 1019.25 1018.84 1018.53 1017.86 1017.27 1016.03 1015.91 1015.26 1015.40
1011.76 1012.27 1013.06 1013.74 1014.08 1014.36 1014.40 1014.23 1014.52 1014.56 1015.01 1015.78 1016.36 1017.09 1017.71 1018.20 1018.70 1019.43 1020.02 1020.59 1021.05 1021.44 1021.72 1021.79 1021.85 1021.92 1021.96 1022.07 1022.00 1021.95 1021.77 1021.62 1021.45 1021.19 1020.93 1020.76 1020.52 1020.36 1019.96 1019.97 1019.53 1019.25 1018.80 1018.28 1017.95 1017.25 1015.97 1016.11 1015.74
1012.63 1013.28 1013.78 1014.15 1014.57 1014.82 1015.08 1014.89 1014.52 1014.19 1014.99 1016.10 1016.72 1016.97 1017.52 1018.04 1018.69 1019.34 1020.02 1020.70 1021.17 1021.54 1021.71 1021.76 1021.73 1021.92 1022.11 1022.14 1022.09 1022.04 1021.89 1021.67 1021.60 1021.33 1021.06 1020.80 1020.70 1020.46 1020.17 1019.95 1019.72 1019.41 1019.13 1018.65 1018.16 1017.45 1016.21 1015.77 1015.81
1013.36 1013.40 1013.98 1013.94 1014.85 1015.62 1015.86 1014.39 1014.00 1014.43 1015.15 1016.01 1016.68 1017.04 1017.56 1018.16 1018.76 1019.48 1020.19 1020.79 1021.25 1021.51 1021.68 1021.63 1021.63 1021.92 1022.12 1022.23 1022.23 1022.11 1021.95 1021.76 1021.64 1021.26 1021.04 1020.84 1020.66 1020.53 1020.34 1020.16 1020.00 1019.73 1019.50 1019.18 1018.73 1018.26 1017.27 1015.76 1015.65
1013.64 1013.62 1013.67 1014.51 1014.76 1015.47 1016.12 1015.20 1014.88 1015.11 1015.63 1016.09 1016.60 1017.24 1017.67 1018.11 1018.61 1019.20 1019.95 1020.56 1021.07 1021.32 1021.53 1021.65 1021.74 1022.02 1022.25 1022.29 1022.32 1022.20 1022.00 1021.86 1021.59 1021.28 1021.21 1021.15 1021.07 1020.89 1020.73 1020.44 1020.11 1019.91 1019.69 1019.50 1019.09 1018.51 1018.38 1016.95 1015.38
1014.33 1014.23 1013.63 1014.27 1015.44 1015.81 1015.95 1015.65 1015.50 1015.66 1016.03 1016.22 1016.61 1016.99 1017.51 1017.85 1018.33 1018.89 1019.71 1020.42 1020.88 1021.22 1021.50 1021.51 1021.73 1022.04 1022.32 1022.47 1022.44 1022.32 1022.20 1022.08 1021.76 1021.55 1021.30 1021.20 1021.08 1020.99 1020.94 1020.73 1020.36 1020.11 1019.84 1019.57 1019.24 1018.90 1018.27 1017.67 1016.12
1015.34 1015.05 1014.96 1015.15 1016.05 1016.26 1015.78 1015.38 1015.08 1015.25 1015.77 1016.27 1016.49 1016.68 1017.04 1017.59 1017.90 1018.73 1019.64 1020.32 1020.83 1021.14 1021.55 1021.53 1021.96 1022.32 1022.48 1022.67 1022.60 1022.48 1022.38 1022.10 1021.79 1021.50 1021.30 1021.15 1020.87 1020.72 1020.76 1020.66 1020.48 1020.09 1019.84 1019.47 1019.18 1018.94 1018.51 1017.48 1016.68
1016.21 1016.08 1015.91 1016.15 1016.54 1016.88 1016.16 1015.32 1015.01 1014.79 1014.78 1015.36 1016.01 1016.52 1016.67 1017.13 1017.83 1018.85 1019.61 1020.21 1020.81 1021.35 1021.48 1021.76 1022.17 1022.31 1022.42 1022.60 1022.60 1022.45 1022.12 1021.89 1021.60 1021.25 1021.13 1020.97 1020.78 1020.68 1020.75 1020.50 1020.42 1020.04 1019.69 1019.36 1019.14 1019.02 1018.64 1017.85 1016.80
1017.00 1017.29 1017.35 1017.45 1017.28 1016.68 1016.84 1015.17 1013.91 1013.57 1014.34 1015.04 1015.49 1015.91 1016.39 1016.69 1017.61 1018.48 1019.43 1020.23 1020.68 1021.23 1021.56 1021.96 1022.25 1022.33 1022.40 1022.55 1022.50 1022.25 1021.83 1021.62 1021.64 1021.30 1021.30 1021.41 1021.21 1021.04 1020.99 1020.77 1020.49 1020.08 1019.90 1019.55 1019.37 1019.22 1018.83 1018.19 1016.66
1018.16 1018.39 1018.47 1018.40 1018.48 1018.00 1017.63 1016.07 1014.07 1014.11 1014.79 1015.46 1015.55 1015.92 1016.37 1016.66 1017.33 1018.53 1019.57 1020.26 1020.84 1021.48 1021.86 1022.17 1022.39 1022.44 1022.57 1022.68 1022.65 1022.28 1022.21 1022.01 1021.73 1021.56 1021.56 1021.55 1021.25 1020.97 1020.83 1020.59 1020.33 1020.02 1019.61 1019.27 1019.10 1018.96 1018.63 1018.29 1017.07
1019.39 1019.31 1019.14 1019.26 1019.30 1019.04 1017.95 1017.95 1014.37 1014.57 1015.05 1015.49 1015.96 1016.28 1016.52 1017.06 1017.83 1018.61 1019.33 1020.11 1020.79 1021.64 1022.26 1022.26 1022.43 1022.63 1022.64 1022.50 1022.35 1022.25 1022.09 1021.95 1021.63 1021.44 1021.36 1021.08 1020.74 1020.49 1020.33 1020.07 1019.72 1019.33 1018.93 1018.70 1018.44 1018.29 1018.26 1017.96 1017.27
1020.25 1020.04 1019.78 1019.76 1019.77 1019.24 1017.21 1017.29 1014.87 1014.59 1014.37 1014.99 1016.00 1016.66 1017.09 1017.77 1018.31 1018.85 1019.37 1020.18 1021.02 1021.69 1022.21 1022.19 1022.44 1022.48 1022.45 1022.39 1022.46 1022.23 1022.28 1022.08 1021.85 1021.64 1021.21 1020.61 1020.19 1019.98 1019.82 1019.53 1019.17 1018.80 1018.35 1018.04 1017.79 1017.45 1017.19 1017.08 1016.83
1020.92 1020.64 1020.30 1020.47 1020.12 1018.56 1017.81 1017.86 1015.10 1014.34 1014.24 1014.69 1015.80 1016.83 1017.60 1018.24 1018.78 1019.28 1019.79 1020.27 1021.10 1021.61 1022.05 1022.55 1022.81 1022.94 1022.59 1022.51 1022.28 1022.23 1022.30 1022.15 1021.84 1021.27 1020.72 1020.21 1019.62 1019.21 1018.94 1018.77 1018.43 1018.06 1017.69 1017.38 1017.20 1016.82 1016.28 1015.83 1015.23
1021.71 1021.75 1021.28 1020.44 1019.61 1018.86 1018.61 1017.36 1015.17 1015.06 1015.05 1015.25 1016.20 1017.14 1018.07 1018.88 1019.11 1019.62 1019.95 1020.27 1020.98 1021.55 1022.05 1022.62 1022.99 1023.07 1022.56 1022.35 1022.25 1022.19 1022.09 1021.86 1021.41 1020.93 1020.36 1019.65 1019.04 1018.53 1018.12 1017.78 1017.40 1017.09 1016.84 1016.61 1016.33 1015.86 1015.05 1014.46 1013.80
1023.07 1022.86 1022.53 1021.48 1020.09 1019.61 1017.04 1015.68 1015.58 1015.73 1016.07 1016.42 1016.96 1017.65 1018.30 1018.84 1019.13 1019.65 1019.87 1020.33 1021.00 1021.51 1021.97 1022.51 1022.92 1022.91 1022.51 1022.24 1022.11 1022.06 1021.80 1021.49 1021.15 1020.48 1019.84 1018.98 1018.30 1017.67 1017.14 1016.78 1016.27 1015.88 1015.67 1015.58 1015.38 1014.72 1013.98 1013.69 1013.32
1023.91 1023.76 1023.30 1022.44 1021.12 1019.44 1016.91 1016.05 1015.31 1015.71 1016.15 1016.74 1017.32 1017.78 1018.28 1018.81 1019.19 1019.70 1019.93 1020.39 1020.90 1021.23 1021.81 1022.36 1022.53 1022.60 1022.36 1022.08 1021.99 1021.84 1021.34 1021.17 1020.64 1019.96 1019.04 1018.24 1017.50 1017.02 1016.35 1015.65 1015.12 1014.62 1014.20 1014.01 1013.79 1013.13 1012.61 1012.20 1011.56
1024.78 1024.27 1023.82 1023.24 1021.80 1020.37 1018.77 1016.07 1015.06 1014.80 1015.24 1016.14 1016.88 1017.53 1018.13 1018.85 1019.27 1019.72 1019.86 1020.23 1020.73 1021.00 1021.52 1021.89 1022.19 1022.35 1022.32 1021.84 1021.76 1021.45 1021.17 1020.78 1020.06 1019.19 1018.24 1017.56 1016.74 1015.94 1015.06 1014.36 1013.74 1013.10 1012.60 1012.27 1011.91 1011.30 1011.00 1010.33 1009.90
1023.80 1023.56 1023.29 1023.09 1022.28 1021.24 1020.52 1017.46 1015.68 1015.58 1015.64 1015.91 1016.87 1017.56 1017.98 1018.34 1018.83 1019.38 1019.50 1019.95 1020.56 1020.95 1021.03 1021.44 1021.77 1022.06 1021.97 1021.53 1021.46 1021.20 1020.91 1020.24 1019.29 1018.33 1017.59 1016.83 1015.68 1014.79 1013.88 1013.02 1012.11 1011.36 1010.87 1010.41 1009.85 1009.25 1008.96 1008.41 1007.91
Wind_Speed
13 6 4 1 2 2 4 5 4 4 5 4 8 6 13 10 5 4 6 5 7 7 9 11 20 21 22 23 23 23 23 22 22 20 17 14 4 3 3 2 2 4 5 4 1 7 11 13 14
8 8 2 4 2 5 6 8 7 5 7 8 8 7 8 6 6 10 7 7 7 7 7 9 18 19 20 21 22 22 22 22 20 21 19 17 15 5 5 4 2 3 3 5 1 5 10 12 12
7 9 2 4 4 6 5 7 13 8 8 4 6 9 5 4 4 5 6 5 8 8 9 10 16 18 19 19 21 21 21 20 20 19 19 18 16 14 12 7 5 3 4 2 4 6 9 10 11
5 2 4 3 9 8 2 14 16 10 3 1 13 10 6 8 5 5 5 6 6 9 9 10 15 16 17 18 20 20 20 20 20 19 18 18 17 15 13 15 6 6 4 2 5 8 9 10 10
4 3 4 6 11 3 6 9 9 8 9 6 5 7 6 5 9 7 5 6 7 7 6 6 14 16 18 17 19 19 19 19 19 19 19 18 16 15 16 15 11 6 5 2 5 9 10 9 11
3 3 4 10 9 6 6 6 5 8 7 4 6 7 5 9 8 6 5 6 8 7 8 8 12 16 17 16 19 19 19 19 19 19 19 19 17 16 13 16 15 11 3 3 4 9 10 10 10
3 4 6 8 10 7 8 8 5 8 9 4 4 6 7 8 6 4 5 7 8 7 6 6 6 12 16 16 18 18 19 19 19 19 20 20 18 17 15 14 15 17 15 2 4 6 9 9 10
4 4 7 7 12 2 9 7 2 8 5 3 7 7 7 11 7 7 6 7 8 6 6 7 7 8 8 5 18 18 19 19 19 19 20 19 17 20 19 16 15 14 14 7 5 7 10 9 9
3 3 5 9 11 6 10 6 4 3 7 5 5 7 11 11 8 6 7 7 6 7 7 6 7 7 8 8 11 13 17 18 19 17 21 13 8 10 15 17 16 15 11 11 6 8 10 9 8
3 3 3 6 5 8 8 11 9 6 8 5 8 9 9 9 7 7 7 6 6 6 6 7 7 7 8 9 7 7 9 6 7 9 12 9 9 8 11 14 18 15 17 12 8 10 10 8 4
4 2 5 8 7 5 7 7 7 6 7 8 12 13 10 8 7 7 7 7 6 6 5 6 6 6 6 6 5 4 4 4 4 9 9 8 7 6 5 5 7 8 10 7 4 5 4 7 6
3 5 5 4 5 3 7 5 4 6 2 8 16 14 8 9 8 7 7 6 5 6 6 6 6 6 6 4 4 5 5 5 5 6 8 6 6 8 7 6 7 8 7 9 9 3 8 9 7
3 5 6 6 3 6 5 3 2 7 8 9 13 12 9 8 8 8 7 6 6 6 6 6 5 5 5 5 4 4 5 5 5 5 6 5 5 6 7 7 6 6 8 8 8 5 4 8 9
6 6 7 4 4 3 1 4 4 7 10 10 11 9 8 8 9 7 6 6 5 6 5 5 5 5 5 4 5 4 4 4 4 5 6 7 4 5 6 7 7 7 7 7 9 8 5 5 5
6 5 2 5 5 3 1 5 8 5 14 12 11 10 9 7 7 6 7 6 5 4 4 4 4 5 6 6 5 4 4 5 4 4 6 8 7 5 6 6 6 7 7 10 9 10 10 5 6
4 3 3 6 8 4 2 4 9 11 12 11 10 8 8 8 9 8 8 7 6 4 4 4 5 5 6 5 5 4 4 4 4 4 4 7 8 9 7 6 6 7 7 7 7 8 9 7 7
6 4 8 6 7 4 7 1 6 6 8 10 10 8 8 9 8 8 8 7 6 4 3 3 4 5 5 4 4 4 5 4 4 4 5 7 8 8 7 7 6 8 7 7 7 8 9 11 8
0 5 4 6 4 3 6 11 6 8 9 9 9 9 9 8 9 10 10 7 6 3 3 4 4 5 5 4 4 4 3 4 4 4 6 9 8 9 8 7 9 7 6 6 6 9 9 11 11
4 3 3 6 3 2 9 12 9 15 12 10 9 9 9 10 8 10 9 8 6 4 2 5 5 5 4 3 3 3 3 4 4 4 8 10 9 10 10 7 8 8 7 8 9 8 10 11 14
5 4 5 4 4 0 5 13 11 8 13 15 11 10 9 9 10 9 9 8 7 4 4 4 4 4 3 2 3 2 3 3 4 4 7 7 7 8 9 9 9 9 7 8 8 7 6 8 10
3 2 5 3 6 10 7 10 8 8 6 9 9 8 7 11 11 10 7 8 6 4 4 2 2 3 3 4 3 3 3 3 4 4 5 7 9 10 10 11 10 11 9 8 9 8 9 8 13
4 4 2 5 3 4 1 8 4 5 2 3 7 9 8 8 6 8 7 4 6 4 1 2 2 2 3 5 4 5 4 6 4 6 6 7 10 10 11 12 12 12 9 10 9 9 8 8 13
3 2 2 2 3 3 5 3 7 5 7 8 7 6 5 7 8 7 8 7 4 5 4 2 2 2 2 3 4 4 5 5 6 7 10 10 9 11 11 12 12 12 10 11 12 12 11 9 12
1 3 5 2 2 3 9 6 6 5 3 6 9 7 7 6 6 5 4 7 5 5 5 3 1 2 2 2 4 5 6 8 8 9 10 9 8 8 10 12 12 12 13 13 12 13 15 13 13
1 2 3 3 2 5 4 1 10 3 1 11 13 9 8 5 4 4 6 5 6 6 5 3 2 3 3 2 4 4 7 8 11 11 9 11 10 9 10 11 11 10 13 14 14 15 16 15 14
3 2 3 4 3 2 2 7 7 2 6 9 7 8 7 5 5 5 5 4 5 5 5 4 4 4 3 3 4 5 7 6 8 10 10 10 10 11 14 14 14 15 16 15 15 14 14 15 15
3 2 1 4 1 1 6 7 4 3 2 3 6 6 7 7 6 6 5 5 4 5 5 5 4 4 4 5 4 5 7 8 10 13 13 11 14 12 16 16 17 17 17 19 18 14 18 16 16
2 1 1 2 3 5 4 4 3 5 7 5 4 7 5 4 4 4 4 4 4 5 4 4 3 5 5 5 3 6 5 9 11 12 14 15 16 17 18 18 18 19 19 19 21 18 20 20 15
2 1 1 2 2 3 3 5 2 5 11 11 8 6 7 5 5 5 5 4 5 5 5 5 4 4 5 4 5 5 7 10 11 12 14 15 17 17 18 19 20 21 21 20 20 22 22 21 21
1 0 4 3 2 2 2 10 4 4 5 6 5 5 4 4 6 5 5 6 5 5 4 4 2 3 5 5 4 6 8 10 11 12 14 16 17 18 19 19 20 21 22 23 24 22 22 24 25
Wind_Direction
303 278 262 341 99 180 222 244 75 97 76 64 48 41 99 39 17 106 113 58 52 29 22 2 11 13 12 17 20 21 23 26 26 27 27 22 357 345 8 358 340 332 47 52 138 136 111 107 103
294 275 269 258 201 208 238 184 157 72 115 98 43 63 34 77 48 116 130 39 60 37 37 3 13 14 18 17 20 18 21 20 26 25 25 24 15 336 330 337 329 330 14 58 68 126 120 113 109
255 247 208 196 205 229 248 134 113 105 126 151 102 37 58 91 34 76 76 35 49 42 42 7 15 15 16 18 19 19 19 19 19 22 20 20 13 9 3 312 337 359 6 35 96 131 130 121 115
237 218 276 241 244 237 39 96 109 112 72 9 107 81 77 8 99 60 101 65 36 43 35 14 16 16 17 18 18 17 19 15 18 15 17 14 13 12 356 1 338 340 4 352 134 139 139 131 114
256 250 236 210 243 124 52 109 128 142 148 155 198 135 89 82 104 96 78 92 63 50 49 13 19 14 17 19 16 15 13 15 16 14 12 7 9 11 5 6 351 329 331 277 152 152 147 137 131
245 260 218 231 232 129 88 96 141 136 104 78 104 109 94 144 117 115 104 75 69 41 44 35 19 18 16 15 16 13 13 11 15 13 10 8 6 6 12 359 5 348 328 285 177 161 162 154 149
267 206 234 255 223 136 135 133 172 127 128 126 102 88 131 127 109 97 96 100 90 65 45 37 24 22 12 11 14 12 12 11 10 10 10 5 2 1 10 8 17 360 348 265 210 175 166 169 160
294 253 257 238 262 140 119 124 202 129 101 57 352 162 173 131 143 139 110 83 79 68 46 25 17 20 3 353 13 11 12 8 7 7 7 3 4 359 358 3 356 345 343 305 232 183 174 173 154
288 269 224 224 236 126 144 114 52 31 120 83 39 60 97 123 153 139 130 93 77 65 55 24 15 13 3 6 8 9 7 7 4 3 3 360 358 359 348 342 347 332 321 310 239 209 182 173 152
223 247 276 31 4 116 168 134 119 149 131 116 104 105 121 139 137 117 98 86 72 60 53 36 13 6 10 6 357 5 0 2 351 7 354 355 351 351 350 340 336 337 340 282 242 207 190 157 137
242 247 58 42 10 85 144 123 133 161 190 174 163 150 152 137 131 121 105 97 83 79 59 38 19 11 20 356 7 356 357 357 347 5 345 351 343 347 348 346 341 337 343 334 230 201 173 167 157
281 48 11 81 2 16 135 113 151 234 75 126 148 147 146 150 145 132 117 106 92 81 67 45 26 20 14 352 -0 350 358 353 1 341 346 347 350 344 347 345 341 338 332 321 315 206 175 176 177
219 100 55 80 42 44 47 149 343 184 112 86 112 136 158 151 130 121 126 122 95 79 65 50 30 28 5 13 356 352 345 346 343 340 330 345 341 337 341 331 331 334 330 329 320 283 222 196 180
13 115 108 141 104 62 219 172 72 214 134 140 146 161 158 158 149 131 141 126 103 90 68 48 36 34 8 6 3 346 335 332 336 330 331 332 330 326 332 333 327 324 326 325 320 318 245 210 210
115 116 186 183 173 127 325 254 217 183 149 165 179 174 161 160 133 164 129 120 112 100 75 39 35 35 22 3 355 341 326 339 326 322 325 330 331 326 323 323 326 323 320 331 328 313 304 193 194
207 229 194 134 143 117 189 289 176 148 159 178 184 176 162 169 169 143 140 138 135 116 89 68 31 29 14 0 347 326 317 319 313 325 319 327 333 338 332 327 316 315 317 315 319 316 315 230 197
206 249 197 165 195 124 197 115 117 143 177 189 183 181 174 173 166 147 147 146 134 116 84 49 50 31 20 348 322 309 311 318 309 337 341 327 326 326 323 317 314 317 311 311 318 306 303 313 206
203 230 258 145 159 229 223 252 178 183 197 207 184 188 177 173 175 157 145 144 147 142 79 58 48 35 8 343 331 320 335 340 338 329 321 327 324 323 319 311 306 301 301 303 304 304 302 290 279
294 307 327 120 87 305 231 251 236 188 193 202 207 195 176 177 166 133 141 149 165 147 87 61 40 20 16 355 330 343 323 321 322 326 320 316 309 309 307 299 294 296 290 291 295 297 300 300 301
351 345 302 66 98 109 289 279 271 217 201 195 190 201 193 166 135 140 153 166 173 137 84 57 38 13 2 350 317 281 289 284 285 283 284 286 298 310 304 310 313 307 301 296 295 302 298 277 267
145 322 340 353 323 228 289 273 215 226 190 193 199 178 218 164 159 165 166 173 141 138 88 43 39 4 349 330 316 315 318 322 323 322 335 314 305 304 298 295 293 295 293 287 284 281 274 281 291
268 48 15 338 359 261 177 285 249 161 173 166 172 172 178 130 115 128 156 165 157 149 177 123 19 349 316 344 323 333 314 308 308 311 301 292 287 282 280 280 279 279 279 273 271 266 259 262 270
53 333 353 36 294 5 188 266 258 120 206 198 205 168 157 158 159 166 161 171 154 150 179 174 214 276 312 325 332 324 314 306 308 301 294 288 282 275 272 271 270 269 270 270 268 265 257 247 261
26 245 201 156 244 255 211 196 264 187 226 146 177 170 155 143 151 174 166 149 172 167 165 194 233 278 325 332 316 309 302 305 301 292 290 286 283 278 269 269 266 269 268 269 266 261 254 247 242
221 244 217 202 195 237 345 217 255 222 319 165 154 145 154 149 166 191 209 202 157 173 177 175 217 264 271 285 292 289 287 287 285 287 289 289 286 281 275 271 266 262 262 263 263 260 256 252 250
93 13 313 292 336 341 80 235 261 39 32 103 112 130 141 174 198 210 220 204 164 169 171 172 211 259 271 276 269 272 276 280 283 281 282 281 282 282 281 275 267 262 261 262 261 263 261 248 248
151 200 53 296 142 31 233 278 39 97 59 84 139 152 195 205 205 207 214 197 173 164 175 186 213 254 268 264 268 273 271 282 280 282 282 281 279 276 273 268 265 261 255 256 258 256 253 251 251
20 206 143 224 274 266 281 273 271 198 191 199 195 206 208 200 199 220 216 208 188 168 172 178 210 234 246 262 260 271 276 282 280 282 284 282 278 277 273 269 265 262 258 252 250 249 250 248 250
118 220 205 314 230 276 306 266 314 211 186 184 201 196 190 192 228 225 211 184 173 161 178 211 219 247 279 278 267 275 283 280 282 284 287 285 284 281 278 273 268 262 256 249 244 243 246 245 240
49 101 176 214 216 223 150 277 345 23 61 122 147 153 173 186 232 224 207 186 178 192 195 200 223 243 253 255 270 282 279 281 283 289 290 288 286 281 273 268 262 259 256 252 247 243 242 241 243